Location: Alpha Ridge Park
(39.3209°N, 76.9128°W)
Time: 13:33:18
(UTC-04:00)

S-56A Canister/Altair - Pass Details

Date: 19 May 2019
Orbit: 633 x 2499 km, 38.9° (Epoch: 18 June)

Event Time Altitude Azimuth Distance (km) Brightness Sun altitude
Rises 10:29:07 0° 286° (WNW) 5,437 11.5 51.5°
Reaches altitude 10° 10:32:52 10° 277° (W) 4,656 11.3 52.1°
Maximum altitude 10:44:15 34° 220° (SW) 3,514 11.2 54.2°
Drops below altitude 10° 10:56:49 10° 164° (SSE) 5,109 12.2 56.4°
Sets 11:01:15 0° 155° (SSE) 6,017 12.5 57.2°
